| time (UTC) | temp C | wind direction | speed KPH | gust KPH | rain 1hr cm | rain 24hr cm | rain mn cm | humidity % | barometer mb |
| 20260505130224 | 20 | 326 | 3.2 | 4.8 | 0.00 | 0.08 | 0.00 | 49 | 1012.0 |
| 20260505124725 | 20 | 334 | 1.6 | 6.4 | 0.00 | 0.08 | 0.00 | 51 | 1011.9 |
| 20260505124224 | 20 | 2 | 1.6 | 8.0 | 0.00 | 0.08 | 0.00 | 49 | 1011.9 |
| 20260505123724 | 20 | 322 | 6.4 | 8.0 | 0.00 | 0.08 | 0.00 | 52 | 1012.0 |
| 20260505123224 | 20 | 322 | 6.4 | 9.7 | 0.00 | 0.08 | 0.00 | 51 | 1012.0 |
| 20260505122725 | 19 | 8 | 3.2 | 3.2 | 0.00 | 0.08 | 0.00 | 53 | 1012.0 |
| 20260505122224 | 19 | 309 | 0.0 | 4.8 | 0.00 | 0.08 | 0.00 | 54 | 1012.0 |
| 20260505121724 | 19 | 295 | 1.6 | 3.2 | 0.00 | 0.08 | 0.00 | 52 | 1012.0 |
| 20260505121224 | 18 | 295 | 0.0 | 0.0 | 0.00 | 0.08 | 0.00 | 55 | 1012.0 |
| 20260505120727 | 18 | 313 | 0.0 | 3.2 | 0.00 | 0.08 | 0.00 | 55 | 1011.9 |
| 20260505120225 | 18 | 327 | 1.6 | 3.2 | 0.00 | 0.08 | 0.00 | 55 | 1011.9 |
| 20260505115724 | 18 | 277 | 0.0 | 3.2 | 0.00 | 0.08 | 0.00 | 57 | 1011.9 |
| 20260505115225 | 17 | 288 | 1.6 | 3.2 | 0.00 | 0.08 | 0.00 | 59 | 1011.8 |
| 20260505114729 | 17 | 250 | 0.0 | 0.0 | 0.00 | 0.08 | 0.00 | 60 | 1011.8 |
| 20260505114224 | 17 | 250 | 0.0 | 0.0 | 0.00 | 0.08 | 0.00 | 61 | 1011.7 |
| 20260505113725 | 16 | 250 | 0.0 | 3.2 | 0.00 | 0.08 | 0.00 | 61 | 1011.7 |
| 20260505113224 | 17 | 277 | 0.0 | 0.0 | 0.00 | 0.08 | 0.00 | 61 | 1011.7 |
| 20260505112724 | 16 | 277 | 0.0 | 0.0 | 0.00 | 0.08 | 0.00 | 61 | 1011.6 |
| 20260505112224 | 16 | 277 | 0.0 | 0.0 | 0.00 | 0.08 | 0.00 | 61 | 1011.6 |
| 20260505111725 | 16 | 277 | 0.0 | 0.0 | 0.00 | 0.08 | 0.00 | 61 | 1011.6 |
| 20260505111227 | 16 | 277 | 0.0 | 3.2 | 0.00 | 0.08 | 0.00 | 61 | 1011.6 |
| 20260505110724 | 16 | 268 | 0.0 | 1.6 | 0.00 | 0.08 | 0.00 | 62 | 1011.5 |
| 20260505110224 | 15 | 270 | 0.0 | 3.2 | 0.00 | 0.08 | 0.00 | 63 | 1011.5 |
| 20260505101724 | 15 | 293 | 0.0 | 0.0 | 0.00 | 0.13 | 0.00 | 64 | 1011.0 |
| 20260505100726 | 15 | 293 | 0.0 | 0.0 | 0.00 | 0.13 | 0.00 | 63 | 1010.8 |
| 20260505100302 | 15 | 293 | 0.0 | 0.0 | 0.00 | 0.13 | 0.00 | 63 | 1010.7 |
| 20260505100228 | 15 | 293 | 0.0 | 0.0 | 0.00 | 0.13 | 0.00 | 63 | 1010.7 |
| 20260505095727 | 15 | 293 | 0.0 | 0.0 | 0.00 | 0.13 | 0.00 | 63 | 1010.7 |
| 20260505094724 | 15 | 334 | 0.0 | 3.2 | 0.00 | 0.13 | 0.00 | 62 | 1010.7 |
| 20260505094224 | 15 | 326 | 3.2 | 6.4 | 0.00 | 0.13 | 0.00 | 62 | 1010.7 |
| 20260505093724 | 15 | 317 | 4.8 | 9.7 | 0.00 | 0.13 | 0.00 | 63 | 1010.6 |
| 20260505093224 | 15 | 319 | 0.0 | 6.4 | 0.00 | 0.13 | 0.00 | 63 | 1010.6 |
| 20260505092724 | 14 | 295 | 3.2 | 9.7 | 0.00 | 0.13 | 0.00 | 64 | 1010.5 |
| 20260505092226 | 14 | 322 | 3.2 | 4.8 | 0.00 | 0.13 | 0.00 | 65 | 1010.6 |
| 20260505091724 | 14 | 333 | 4.8 | 6.4 | 0.00 | 0.13 | 0.00 | 66 | 1010.6 |
| 20260505091224 | 13 | 253 | 0.0 | 4.8 | 0.00 | 0.13 | 0.00 | 68 | 1010.6 |
| 20260505090725 | 13 | 288 | 3.2 | 3.2 | 0.00 | 0.13 | 0.00 | 70 | 1010.6 |
| 20260505090224 | 13 | 317 | 1.6 | 3.2 | 0.00 | 0.13 | 0.00 | 71 | 1010.6 |
| 20260505085852 | 13 | 284 | 0.0 | 0.0 | 0.00 | 0.13 | 0.00 | 72 | 1010.6 |
| 20260505085724 | 13 | 284 | 0.0 | 0.0 | 0.00 | 0.13 | 0.00 | 72 | 1010.6 |
| 20260505085224 | 12 | 284 | 0.0 | 0.0 | 0.00 | 0.13 | 0.00 | 74 | 1010.6 |
| 20260505084726 | 12 | 284 | 0.0 | 0.0 | 0.00 | 0.13 | 0.00 | 74 | 1010.6 |
| 20260505084224 | 12 | 284 | 0.0 | 0.0 | 0.00 | 0.13 | 0.00 | 75 | 1010.6 |
| 20260505083726 | 12 | 284 | 0.0 | 0.0 | 0.00 | 0.13 | 0.00 | 75 | 1010.6 |
| 20260505083224 | 12 | 284 | 0.0 | 0.0 | 0.00 | 0.13 | 0.00 | 75 | 1010.6 |
| 20260505082724 | 13 | 284 | 0.0 | 0.0 | 0.00 | 0.13 | 0.00 | 75 | 1010.7 |
| 20260505082224 | 13 | 284 | 0.0 | 0.0 | 0.00 | 0.13 | 0.00 | 75 | 1010.7 |
| 20260505081724 | 13 | 284 | 0.0 | 0.0 | 0.00 | 0.13 | 0.00 | 74 | 1010.6 |
| 20260505081227 | 13 | 284 | 0.0 | 0.0 | 0.00 | 0.13 | 0.00 | 74 | 1010.7 |
| 20260505080724 | 13 | 284 | 0.0 | 0.0 | 0.00 | 0.13 | 0.00 | 73 | 1010.6 |
| 20260505080224 | 13 | 284 | 0.0 | 0.0 | 0.00 | 0.13 | 0.00 | 73 | 1010.6 |
| 20260505075725 | 13 | 284 | 0.0 | 0.0 | 0.00 | 0.13 | 0.00 | 73 | 1010.6 |
| 20260505075224 | 13 | 284 | 0.0 | 0.0 | 0.00 | 0.13 | 0.00 | 72 | 1010.6 |
| 20260505074725 | 13 | 284 | 0.0 | 0.0 | 0.00 | 0.13 | 0.00 | 72 | 1010.7 |
| 20260505074224 | 13 | 284 | 0.0 | 0.0 | 0.00 | 0.13 | 0.00 | 72 | 1010.7 |
| 20260505073724 | 13 | 284 | 0.0 | 0.0 | 0.00 | 0.13 | 0.00 | 71 | 1010.7 |
| 20260505073225 | 13 | 284 | 0.0 | 0.0 | 0.00 | 0.13 | 0.00 | 71 | 1010.5 |
| 20260505072726 | 13 | 284 | 0.0 | 0.0 | 0.00 | 0.13 | 0.00 | 70 | 1010.5 |
| 20260505072224 | 13 | 284 | 0.0 | 0.0 | 0.00 | 0.13 | 0.00 | 70 | 1010.5 |
| 20260505071726 | 13 | 284 | 0.0 | 0.0 | 0.00 | 0.13 | 0.00 | 70 | 1010.5 |
| 20260505071224 | 14 | 284 | 0.0 | 0.0 | 0.00 | 0.13 | 0.00 | 70 | 1010.5 |
| 20260505070726 | 13 | 284 | 0.0 | 0.0 | 0.00 | 0.13 | 0.00 | 70 | 1010.5 |
| 20260505070224 | 13 | 284 | 0.0 | 0.0 | 0.00 | 0.13 | 0.00 | 71 | 1010.5 |
| 20260505065724 | 14 | 284 | 0.0 | 0.0 | 0.00 | 0.13 | 0.00 | 70 | 1010.5 |
| 20260505065224 | 14 | 284 | 0.0 | 0.0 | 0.00 | 0.13 | 0.00 | 69 | 1010.4 |
| 20260505064726 | 14 | 284 | 0.0 | 0.0 | 0.00 | 0.13 | 0.00 | 69 | 1010.3 |
| 20260505064225 | 14 | 284 | 0.0 | 0.0 | 0.00 | 0.13 | 0.00 | 69 | 1010.3 |
| 20260505063726 | 14 | 284 | 0.0 | 0.0 | 0.00 | 0.13 | 0.00 | 69 | 1010.4 |
| 20260505063228 | 14 | 284 | 0.0 | 0.0 | 0.00 | 0.13 | 0.00 | 69 | 1010.4 |
| 20260505062725 | 14 | 284 | 0.0 | 0.0 | 0.00 | 0.13 | 0.00 | 69 | 1010.4 |
| 20260505062228 | 14 | 284 | 0.0 | 0.0 | 0.00 | 0.13 | 0.00 | 69 | 1010.3 |
| 20260505061725 | 14 | 284 | 0.0 | 0.0 | 0.00 | 0.13 | 0.00 | 69 | 1010.3 |
| 20260505061227 | 14 | 284 | 0.0 | 0.0 | 0.00 | 0.13 | 0.00 | 70 | 1010.5 |
| 20260505060725 | 14 | 284 | 0.0 | 0.0 | 0.00 | 0.13 | 0.00 | 71 | 1010.5 |
| 20260505060225 | 13 | 284 | 0.0 | 0.0 | 0.00 | 0.13 | 0.00 | 72 | 1010.6 |
| 20260505055725 | 13 | 284 | 0.0 | 0.0 | 0.00 | 0.13 | 0.00 | 73 | 1010.5 |
| 20260505055225 | 13 | 284 | 0.0 | 0.0 | 0.00 | 0.13 | 0.00 | 73 | 1010.4 |
| 20260505054726 | 13 | 284 | 0.0 | 0.0 | 0.00 | 0.13 | 0.00 | 73 | 1010.5 |
| 20260505054227 | 13 | 284 | 0.0 | 0.0 | 0.00 | 0.13 | 0.00 | 74 | 1010.5 |
| 20260505053725 | 13 | 284 | 0.0 | 0.0 | 0.00 | 0.13 | 0.00 | 73 | 1010.6 |
| 20260505053225 | 13 | 284 | 0.0 | 0.0 | 0.00 | 0.13 | 0.00 | 73 | 1010.6 |
| 20260505052725 | 13 | 284 | 0.0 | 0.0 | 0.00 | 0.13 | 0.00 | 73 | 1010.7 |
| 20260505052309 | 13 | 284 | 0.0 | 0.0 | 0.00 | 0.13 | 0.00 | 73 | 1010.7 |
| 20260505052227 | 13 | 284 | 0.0 | 0.0 | 0.00 | 0.13 | 0.00 | 73 | 1010.7 |
| 20260505051315 | 13 | 284 | 0.0 | 0.0 | 0.00 | 0.13 | 0.00 | 73 | 1010.6 |
| 20260505051225 | 13 | 284 | 0.0 | 0.0 | 0.00 | 0.13 | 0.00 | 73 | 1010.6 |
| 20260505050726 | 13 | 284 | 0.0 | 0.0 | 0.00 | 0.13 | 0.00 | 72 | 1010.6 |
| 20260505050225 | 13 | 284 | 0.0 | 0.0 | 0.00 | 0.13 | 0.00 | 72 | 1010.6 |
| 20260505041726 | 14 | 284 | 0.0 | 0.0 | 0.00 | 0.23 | 0.00 | 67 | 1010.5 |
| 20260505040725 | 15 | 284 | 0.0 | 0.0 | 0.00 | 0.23 | 0.00 | 65 | 1010.4 |
| 20260505040306 | 15 | 284 | 0.0 | 0.0 | 0.00 | 0.23 | 0.00 | 64 | 1010.3 |
| 20260505040225 | 15 | 284 | 0.0 | 0.0 | 0.00 | 0.23 | 0.00 | 64 | 1010.3 |
| 20260505035726 | 15 | 284 | 0.0 | 0.0 | 0.00 | 0.23 | 0.00 | 63 | 1010.3 |
| 20260505035225 | 15 | 284 | 0.0 | 0.0 | 0.00 | 0.23 | 0.00 | 63 | 1010.3 |
| 20260505034725 | 16 | 284 | 0.0 | 0.0 | 0.00 | 0.23 | 0.25 | 63 | 1010.3 |
| 20260505034225 | 16 | 284 | 0.0 | 0.0 | 0.00 | 0.23 | 0.25 | 63 | 1010.3 |
| 20260505033725 | 16 | 284 | 0.0 | 0.0 | 0.00 | 0.23 | 0.25 | 63 | 1010.3 |
| 20260505033227 | 16 | 284 | 0.0 | 0.0 | 0.00 | 0.25 | 0.25 | 62 | 1010.3 |
| 20260505032725 | 16 | 284 | 0.0 | 0.0 | 0.00 | 0.25 | 0.25 | 61 | 1010.4 |
| 20260505031726 | 16 | 284 | 0.0 | 0.0 | 0.00 | 0.25 | 0.25 | 61 | 1010.3 |
| 20260505031225 | 16 | 284 | 0.0 | 0.0 | 0.00 | 0.25 | 0.25 | 60 | 1010.4 |
| 20260505030725 | 16 | 284 | 0.0 | 0.0 | 0.00 | 0.25 | 0.25 | 61 | 1010.3 |
| 20260505030226 | 16 | 284 | 0.0 | 0.0 | 0.00 | 0.25 | 0.25 | 61 | 1010.4 |
| 20260505025727 | 16 | 284 | 0.0 | 0.0 | 0.00 | 0.25 | 0.25 | 61 | 1010.3 |
| 20260505025225 | 16 | 284 | 0.0 | 0.0 | 0.00 | 0.25 | 0.25 | 60 | 1010.3 |
| 20260505024725 | 16 | 284 | 0.0 | 1.6 | 0.00 | 0.25 | 0.25 | 60 | 1010.3 |
| 20260505024225 | 16 | 278 | 0.0 | 0.0 | 0.00 | 0.25 | 0.25 | 60 | 1010.3 |
| 20260505023725 | 16 | 278 | 0.0 | 0.0 | 0.00 | 0.25 | 0.25 | 59 | 1010.3 |
| 20260505023227 | 16 | 278 | 0.0 | 0.0 | 0.00 | 0.33 | 0.25 | 58 | 1010.3 |
| 20260505022726 | 16 | 278 | 0.0 | 1.6 | 0.00 | 0.33 | 0.25 | 59 | 1010.3 |
| 20260505022225 | 16 | 289 | 1.6 | 3.2 | 0.00 | 0.33 | 0.25 | 59 | 1010.3 |
| 20260505021726 | 16 | 225 | 0.0 | 0.0 | 0.00 | 0.33 | 0.25 | 58 | 1010.3 |
| 20260505021225 | 16 | 225 | 0.0 | 0.0 | 0.00 | 0.33 | 0.25 | 59 | 1010.4 |
| 20260505020725 | 16 | 225 | 0.0 | 0.0 | 0.00 | 0.33 | 0.25 | 59 | 1010.4 |
| 20260505020226 | 16 | 225 | 0.0 | 0.0 | 0.00 | 0.33 | 0.25 | 59 | 1010.5 |
| 20260505015726 | 16 | 225 | 0.0 | 0.0 | 0.00 | 0.33 | 0.25 | 59 | 1010.4 |
| 20260505015225 | 16 | 225 | 0.0 | 0.0 | 0.00 | 0.33 | 0.25 | 58 | 1010.3 |
| 20260505014726 | 16 | 225 | 0.0 | 0.0 | 0.00 | 0.33 | 0.25 | 58 | 1010.2 |
| 20260505014228 | 16 | 225 | 0.0 | 0.0 | 0.00 | 0.33 | 0.25 | 58 | 1010.2 |
| 20260505013726 | 16 | 225 | 0.0 | 0.0 | 0.00 | 0.33 | 0.25 | 57 | 1010.2 |
| 20260505013225 | 17 | 225 | 0.0 | 0.0 | 0.00 | 0.33 | 0.25 | 56 | 1010.2 |
| 20260505012725 | 17 | 225 | 0.0 | 0.0 | 0.00 | 0.33 | 0.25 | 55 | 1010.2 |
| 20260505012225 | 16 | 225 | 0.0 | 0.0 | 0.00 | 0.33 | 0.25 | 55 | 1010.0 |
| 20260505011725 | 17 | 225 | 0.0 | 0.0 | 0.00 | 0.33 | 0.25 | 54 | 1010.0 |
| 20260505011225 | 17 | 225 | 0.0 | 0.0 | 0.00 | 0.33 | 0.25 | 54 | 1010.0 |
| 20260505010725 | 17 | 225 | 0.0 | 0.0 | 0.00 | 0.33 | 0.25 | 54 | 1009.9 |
| 20260505010225 | 17 | 225 | 0.0 | 0.0 | 0.00 | 0.33 | 0.25 | 53 | 1009.9 |
| 20260505005726 | 17 | 225 | 0.0 | 0.0 | 0.00 | 0.33 | 0.25 | 53 | 1010.0 |
| 20260505005225 | 17 | 225 | 0.0 | 0.0 | 0.00 | 0.33 | 0.25 | 52 | 1009.9 |
| 20260505004725 | 17 | 225 | 0.0 | 0.0 | 0.00 | 0.33 | 0.25 | 52 | 1009.9 |
| 20260505004225 | 17 | 225 | 0.0 | 0.0 | 0.00 | 0.33 | 0.25 | 51 | 1009.9 |
| 20260505003725 | 17 | 225 | 0.0 | 0.0 | 0.00 | 0.33 | 0.25 | 50 | 1009.9 |
| 20260505003230 | 17 | 225 | 0.0 | 0.0 | 0.00 | 0.33 | 0.25 | 49 | 1009.8 |
| 20260505002726 | 18 | 225 | 0.0 | 3.2 | 0.00 | 0.33 | 0.25 | 48 | 1009.8 |
| 20260505002225 | 18 | 241 | 0.0 | 0.0 | 0.00 | 0.33 | 0.25 | 47 | 1009.9 |
| 20260505001725 | 18 | 241 | 0.0 | 0.0 | 0.00 | 0.33 | 0.25 | 47 | 1009.8 |
| 20260505001225 | 18 | 241 | 0.0 | 4.8 | 0.00 | 0.33 | 0.25 | 46 | 1009.8 |
| 20260505000725 | 18 | 261 | 0.0 | 4.8 | 0.00 | 0.33 | 0.25 | 45 | 1009.7 |
| 20260505000226 | 18 | 247 | 0.0 | 3.2 | 0.00 | 0.33 | 0.25 | 44 | 1009.8 |
| 20260504235727 | 18 | 262 | 1.6 | 3.2 | 0.00 | 0.33 | 0.25 | 43 | 1009.7 |
| 20260504235225 | 18 | 281 | 1.6 | 4.8 | 0.00 | 0.33 | 0.25 | 43 | 1009.7 |
| 20260504234732 | 18 | 288 | 3.2 | 6.4 | 0.00 | 0.33 | 0.25 | 43 | 1009.7 |
| 20260504234228 | 19 | 260 | 1.6 | 8.0 | 0.00 | 0.33 | 0.25 | 43 | 1009.7 |
| 20260504233728 | 19 | 285 | 4.8 | 4.8 | 0.00 | 0.33 | 0.25 | 43 | 1009.7 |
| 20260504233226 | 19 | 268 | 0.0 | 4.8 | 0.00 | 0.33 | 0.25 | 43 | 1009.8 |
| 20260504232726 | 20 | 289 | 4.8 | 6.4 | 0.00 | 0.33 | 0.25 | 41 | 1009.7 |
| 20260504232225 | 20 | 303 | 4.8 | 9.7 | 0.00 | 0.33 | 0.25 | 41 | 1009.7 |
| 20260504231225 | 20 | 281 | 8.0 | 11.3 | 0.00 | 0.33 | 0.25 | 40 | 1009.8 |
| 20260504230725 | 20 | 272 | 6.4 | 8.0 | 0.00 | 0.33 | 0.25 | 41 | 1009.7 |
| 20260504230225 | 20 | 267 | 0.0 | 4.8 | 0.00 | 0.33 | 0.25 | 42 | 1009.7 |
| 20260504225727 | 20 | 286 | 3.2 | 9.7 | 0.00 | 0.33 | 0.25 | 42 | 1009.7 |
| 20260504225225 | 20 | 247 | 4.8 | 9.7 | 0.00 | 0.33 | 0.25 | 40 | 1009.7 |
| 20260504224725 | 20 | 289 | 1.6 | 6.4 | 0.00 | 0.33 | 0.25 | 40 | 1009.7 |
| 20260504224225 | 20 | 240 | 3.2 | 8.0 | 0.00 | 0.33 | 0.25 | 40 | 1009.7 |
| 20260504223725 | 20 | 264 | 3.2 | 6.4 | 0.00 | 0.33 | 0.25 | 40 | 1009.6 |
| 20260504223226 | 20 | 257 | 3.2 | 4.8 | 0.00 | 0.33 | 0.25 | 41 | 1009.7 |
| 20260504222727 | 20 | 277 | 3.2 | 11.3 | 0.00 | 0.33 | 0.25 | 38 | 1009.6 |
| 20260504222228 | 21 | 296 | 4.8 | 8.0 | 0.00 | 0.33 | 0.25 | 40 | 1009.6 |
| 20260504221726 | 21 | 270 | 4.8 | 6.4 | 0.00 | 0.33 | 0.25 | 39 | 1009.6 |
| 20260504221225 | 21 | 268 | 3.2 | 8.0 | 0.00 | 0.33 | 0.25 | 40 | 1009.5 |
| 20260504220725 | 21 | 250 | 1.6 | 8.0 | 0.00 | 0.33 | 0.25 | 37 | 1009.6 |
| 20260504220225 | 21 | 272 | 6.4 | 9.7 | 0.00 | 0.33 | 0.25 | 39 | 1009.5 |
| 20260504215725 | 21 | 270 | 4.8 | 9.7 | 0.00 | 0.33 | 0.25 | 38 | 1009.6 |
| 20260504215225 | 21 | 305 | 3.2 | 4.8 | 0.00 | 0.33 | 0.25 | 37 | 1009.6 |
| 20260504214725 | 21 | 289 | 4.8 | 6.4 | 0.00 | 0.33 | 0.25 | 38 | 1009.6 |
| 20260504214225 | 21 | 277 | 3.2 | 12.9 | 0.00 | 0.33 | 0.25 | 39 | 1009.6 |
| 20260504213725 | 21 | 268 | 4.8 | 8.0 | 0.00 | 0.33 | 0.25 | 36 | 1009.6 |
| 20260504213226 | 21 | 282 | 3.2 | 9.7 | 0.00 | 0.33 | 0.25 | 36 | 1009.6 |
| 20260504212731 | 21 | 248 | 9.7 | 9.7 | 0.00 | 0.33 | 0.25 | 34 | 1009.6 |
| 20260504212225 | 21 | 272 | 1.6 | 6.4 | 0.00 | 0.33 | 0.25 | 38 | 1009.6 |
| 20260504211725 | 21 | 267 | 3.2 | 9.7 | 0.00 | 0.33 | 0.25 | 36 | 1009.6 |
| 20260504211225 | 21 | 271 | 4.8 | 8.0 | 0.00 | 0.33 | 0.25 | 36 | 1009.6 |
| 20260504210725 | 21 | 277 | 6.4 | 9.7 | 0.00 | 0.33 | 0.25 | 36 | 1009.7 |
| 20260504210225 | 21 | 299 | 3.2 | 6.4 | 0.00 | 0.33 | 0.25 | 38 | 1009.6 |
| 20260504205725 | 21 | 270 | 4.8 | 8.0 | 0.00 | 0.33 | 0.25 | 37 | 1009.6 |
| 20260504205225 | 21 | 261 | 0.0 | 3.2 | 0.00 | 0.33 | 0.25 | 41 | 1009.7 |
| 20260504204725 | 21 | 258 | 3.2 | 8.0 | 0.00 | 0.33 | 0.25 | 37 | 1009.8 |
| 20260504204225 | 21 | 278 | 4.8 | 8.0 | 0.00 | 0.33 | 0.25 | 39 | 1009.8 |
| 20260504203725 | 21 | 282 | 6.4 | 9.7 | 0.00 | 0.33 | 0.25 | 39 | 1009.8 |
| 20260504203228 | 21 | 253 | 1.6 | 6.4 | 0.00 | 0.33 | 0.25 | 38 | 1009.8 |
| 20260504202725 | 21 | 253 | 1.6 | 9.7 | 0.00 | 0.33 | 0.25 | 36 | 1009.8 |
| 20260504202225 | 21 | 261 | 4.8 | 8.0 | 0.00 | 0.33 | 0.25 | 39 | 1010.0 |
| 20260504201726 | 20 | 277 | 3.2 | 9.7 | 0.00 | 0.33 | 0.25 | 36 | 1010.1 |
| 20260504201225 | 21 | 250 | 4.8 | 9.7 | 0.00 | 0.33 | 0.25 | 39 | 1010.1 |
| 20260504200725 | 21 | 255 | 3.2 | 12.9 | 0.00 | 0.33 | 0.25 | 36 | 1010.1 |
| 20260504200225 | 20 | 250 | 4.8 | 6.4 | 0.00 | 0.33 | 0.25 | 37 | 1010.3 |
| 20260504195726 | 21 | 295 | 4.8 | 8.0 | 0.00 | 0.33 | 0.25 | 36 | 1010.4 |
| 20260504195226 | 21 | 254 | 6.4 | 6.4 | 0.00 | 0.33 | 0.25 | 36 | 1010.5 |
| 20260504194725 | 21 | 270 | 3.2 | 12.9 | 0.00 | 0.33 | 0.25 | 36 | 1010.5 |
| 20260504194225 | 20 | 293 | 1.6 | 6.4 | 0.00 | 0.33 | 0.25 | 40 | 1010.6 |
| 20260504193725 | 20 | 257 | 1.6 | 8.0 | 0.00 | 0.33 | 0.25 | 40 | 1010.7 |
| 20260504192726 | 21 | 254 | 4.8 | 8.0 | 0.00 | 0.33 | 0.25 | 37 | 1010.9 |
| 20260504192225 | 21 | 250 | 3.2 | 8.0 | 0.00 | 0.33 | 0.25 | 41 | 1011.0 |
| 20260504191726 | 21 | 247 | 3.2 | 8.0 | 0.00 | 0.33 | 0.25 | 42 | 1010.9 |
| 20260504191226 | 21 | 254 | 1.6 | 9.7 | 0.00 | 0.33 | 0.25 | 37 | 1011.0 |
| 20260504190725 | 21 | 247 | 3.2 | 8.0 | 0.00 | 0.33 | 0.25 | 33 | 1011.1 |
| 20260504190226 | 21 | 246 | 3.2 | 9.7 | 0.00 | 0.33 | 0.25 | 39 | 1011.2 |
| 20260504185725 | 21 | 257 | 1.6 | 9.7 | 0.00 | 0.33 | 0.25 | 35 | 1011.3 |
| 20260504185226 | 21 | 291 | 3.2 | 6.4 | 0.00 | 0.33 | 0.25 | 37 | 1011.4 |
| 20260504184725 | 21 | 281 | 4.8 | 12.9 | 0.05 | 0.33 | 0.25 | 36 | 1011.5 |
| 20260504184226 | 21 | 296 | 3.2 | 9.7 | 0.08 | 0.33 | 0.25 | 38 | 1011.5 |
| 20260504183726 | 21 | 309 | 9.7 | 12.9 | 0.08 | 0.33 | 0.25 | 34 | 1011.5 |
| 20260504183225 | 21 | 309 | 4.8 | 11.3 | 0.08 | 0.33 | 0.25 | 35 | 1011.5 |
| 20260504182726 | 21 | 275 | 6.4 | 11.3 | 0.08 | 0.33 | 0.25 | 39 | 1011.4 |
| 20260504182226 | 21 | 275 | 4.8 | 11.3 | 0.08 | 0.33 | 0.25 | 33 | 1011.5 |
| 20260504181726 | 21 | 310 | 6.4 | 12.9 | 0.08 | 0.33 | 0.25 | 38 | 1011.5 |
| 20260504181226 | 21 | 261 | 8.0 | 9.7 | 0.08 | 0.33 | 0.25 | 34 | 1011.6 |
| 20260504180726 | 22 | 258 | 1.6 | 9.7 | 0.08 | 0.33 | 0.25 | 34 | 1011.7 |
| 20260504180226 | 22 | 329 | 6.4 | 12.9 | 0.08 | 0.33 | 0.25 | 35 | 1011.8 |
| 20260504175726 | 22 | 253 | 1.6 | 11.3 | 0.08 | 0.33 | 0.25 | 34 | 1011.8 |
| 20260504175226 | 21 | 326 | 6.4 | 6.4 | 0.08 | 0.33 | 0.25 | 34 | 1011.9 |
| 20260504174726 | 22 | 230 | 0.0 | 9.7 | 0.03 | 0.28 | 0.20 | 34 | 1011.9 |
| 20260504174226 | 21 | 206 | 1.6 | 8.0 | 0.00 | 0.25 | 0.18 | 35 | 1012.0 |
| 20260504173726 | 21 | 334 | 6.4 | 12.9 | 0.00 | 0.25 | 0.18 | 32 | 1012.1 |
| 20260504173226 | 21 | 300 | 8.0 | 11.3 | 0.00 | 0.25 | 0.18 | 33 | 1012.2 |
| 20260504172727 | 21 | 253 | 4.8 | 9.7 | 0.00 | 0.25 | 0.18 | 32 | 1012.2 |
| 20260504172226 | 21 | 209 | 0.0 | 14.5 | 0.00 | 0.25 | 0.18 | 31 | 1012.3 |
| 20260504171728 | 21 | 322 | 0.0 | 9.7 | 0.00 | 0.25 | 0.18 | 36 | 1012.3 |
| 20260504171227 | 21 | 322 | 1.6 | 12.9 | 0.00 | 0.25 | 0.18 | 33 | 1012.3 |
| 20260504170726 | 20 | 312 | 11.3 | 14.5 | 0.00 | 0.25 | 0.18 | 34 | 1012.2 |
| 20260504170226 | 20 | 288 | 1.6 | 11.3 | 0.00 | 0.25 | 0.18 | 34 | 1012.5 |
| 20260504160226 | 19 | 267 | 0.0 | 6.4 | 0.00 | 0.28 | 0.18 | 36 | 1013.3 |
| 20260504150226 | 18 | 282 | 1.6 | 6.4 | 0.00 | 0.28 | 0.18 | 43 | 1013.8 |
| 20260504141227 | 15 | 316 | 4.8 | 8.0 | 0.00 | 0.28 | 0.18 | 48 | 1014.1 |
| 20260504140726 | 14 | 257 | 4.8 | 6.4 | 0.00 | 0.28 | 0.18 | 48 | 1014.1 |
| 20260504140226 | 16 | 267 | 0.0 | 4.8 | 0.00 | 0.28 | 0.18 | 46 | 1014.1 |